Regional Weather Roundup
Issued by NWS

Home | Current Version | Previous Version | Graphics & Text | Print | Product List | Glossary On
Versions: 1 2 3 4 5 6 7 8 9 10 11 12 13 14 15 16 17 18 19 20 21 22 23 24 25 26 27 28 29 30 31 32 33 34 35 36 37 38 39 40 41 42 43 44 45 46 47 48 49 50
000
ASUS43 KIND 041759
RWRIN

WEATHER ROUNDUP FOR INDIANA
NATIONAL WEATHER SERVICE INDIANAPOLIS IN
200 PM EDT FRI SEP 04 2015

NOTE: "FAIR" INDICATES FEW OR NO CLOUDS BELOW 12,000 FEET WITH NO
SIGNIFICANT WEATHER AND/OR OBSTRUCTIONS TO VISIBILITY.

* - STATION DOES NOT REPORT WEATHER SUCH AS PRECIPITATION OR FOG.

+ - STATION NOT QUALITY CONTROLLED BY THE NATIONAL WEATHER SERVICE.
    USE DATA WITH CAUTION...ESPECIALLY DEWPOINT AND RELATIVE
    HUMIDITY OBSERVATIONS.

INZ001>003-010>013-019-020-041900-
NORTHWEST INDIANA

CITY           SKY/WX    TMP DP  RH WIND       PRES   REMARKS

$$

LMZ046-743>745-041900-
SOUTHERN LAKE MICHIGAN

STATION/POSITION TIME  TEMP    WIND        PRES    WAVE
                       AIR SEA DIR/SP/G            HT
                 (UTC) (F)     (DEG/KT/KT) (MB)    (FT)
BURNS HARBOR     1700   72      30/  8/  9 1017.6S
MICHIGAN CITY    1700   73     340/  6/  7   N/A
5NW MICH CITY    1700   72 74   20/  6/  8   N/A     1

$$

INZ004-005-014>016-021>024-041900-
NORTH CENTRAL INDIANA

CITY           SKY/WX    TMP DP  RH WIND       PRES   REMARKS
ELKHART        MOSUNNY   82  72  69 SW6       30.03F
GOSHEN         PTSUNNY   82  71  69 NW5       30.02F
6HR MIN TEMP:  68; 6HR MAX TEMP:  83;

SOUTH BEND     PTSUNNY   83  70  64 W7        30.03F
6HR MIN TEMP:  68; 6HR MAX TEMP:  83;


$$

INZ006>009-017-018-025>027-041900-
NORTHEAST INDIANA

CITY           SKY/WX    TMP DP  RH WIND       PRES   REMARKS
ANGOLA *+      SUNNY     79  72  78 W3        30.05R
FORT WAYNE     PTSUNNY   73  67  81 E8        30.04R
6HR MIN TEMP:  69; 6HR MAX TEMP:  85; 6HR PCP:  0.57;


$$

INZ028-029-035-036-043>045-051>053-041900-
WEST CENTRAL INDIANA

CITY           SKY/WX    TMP DP  RH WIND       PRES   REMARKS
CRAWFORDSVL +  SUNNY     87  62  42 SW3       30.04S
6HR MIN TEMP:  64; 6HR MAX TEMP:  88;

GREENCASTLE +  MOSUNNY   90  64  43 W3        30.05S
LAFAYETTE      MOSUNNY   92  66  42 W9        30.00F
6HR MIN TEMP:  66; 6HR MAX TEMP:  92;

TERRE HAUTE    MOSUNNY   90  68  48 SW6       30.03F
6HR MIN TEMP:  67; 6HR MAX TEMP:  91;


$$

INZ030>032-037>040-046>048-054>057-064-065-041900-
CENTRAL INDIANA

CITY           SKY/WX    TMP DP  RH WIND       PRES   REMARKS
ANDERSON       PTSUNNY   90  59  35 W6        30.04
GREENWOOD *+   MOSUNNY   90  63  40 CALM      30.04F
INDIANAPOLIS   PTSUNNY   89  65  44 S9        30.03F
6HR MIN TEMP:  71; 6HR MAX TEMP:  92;

-EAGLE CREEK   MOSUNNY   90  67  46 W9        30.02F
6HR MIN TEMP:  71; 6HR MAX TEMP:  91;

KOKOMO *+      CLOUDY    90  70  51 NW12      30.02S HX  95
6HR MIN TEMP:  70; 6HR MAX TEMP:  91;

MT COMFORT *+  SUNNY     91  50  24 SW9       30.04F
SHELBYVILLE    PTSUNNY   92  66  42 W6        30.03F
6HR MIN TEMP:  71; 6HR MAX TEMP:  92;


$$

INZ033-034-041-042-049-050-058-059-041900-
EAST CENTRAL INDIANA

CITY           SKY/WX    TMP DP  RH WIND       PRES   REMARKS
MUNCIE         MOSUNNY   88  68  51 W12G18    30.03F
6HR MIN TEMP:  70; 6HR MAX TEMP:  88;


$$

INZ060-061-067>069-081>083-085>088-041900-
SOUTHWEST INDIANA

CITY           SKY/WX    TMP DP  RH WIND       PRES   REMARKS
EVANSVILLE     MOSUNNY   90  66  45 VRB7      30.04F
6HR MIN TEMP:  69; 6HR MAX TEMP:  92;

HUNTINGBURG *+ PTSUNNY   91  66  43 SW6       30.04F
6HR MIN TEMP:  66; 6HR MAX TEMP:  91;


$$

INZ062-063-066-070>080-084-089>092-041900-
SOUTH CENTRAL AND SOUTHEAST INDIANA

CITY           SKY/WX    TMP DP  RH WIND       PRES   REMARKS
BLOOMINGTON    MOSUNNY   90  68  48 VRB5      30.05F
6HR MIN TEMP:  67; 6HR MAX TEMP:  91;

MADISON *+     SUNNY     91  63  38 NW3       30.07F
SEYMOUR +      MOSUNNY   91  66  43 W9        30.03F

$$



USA.gov is the U.S. government's official web portal to all federal, state and local government web resources and services.